sat.trackr.live / text

‹ back to catalog

YAOGAN-35 04B

NORAD 53524 · 2022-100C

PAYLOAD ACTIVE UNKNOWN

§ Identity

Operator
Country
PRC
Launch date
2022-08-19
Launch site
XICLF
Launch vehicle
Mass (kg)
RCS (m²)

External: N2YO · Heavens-Above · Gunter

§ Orbital elements

Epoch: 2026-09-20T22:38:38.893344Z

Period
93.63 min
Inclination
35.0001°
Eccentricity
0.0002502
Mean motion
15.37899886 rev/d
Perigee alt
450.6 km
Apogee alt
454.0 km
Semi-major
6,830.5 km
B*
2.5334e-4
RAAN
131.9489°
Arg perigee
70.7463°
Mean anomaly
289.3527°
Rev number
11,997

§ Raw data

YAOGAN-35 04B1 53524U 22100C   26263.94350571  .00009672  00000+0  25334-3 0  99902 53524  35.0001 131.9489 0002502  70.7463 289.3527 15.37899886119978

JSON: /api/v1/satellites/53524 · /tle

For live sub-satellite position, see the globe view (requires WebGL).

§ Visibility from observer

Set your observer location to see the next 7 days of passes ≥ 10°. The values pass through the URL so the page stays shareable.

No JS? Fill the form by hand. The geolocation button needs JavaScript.